Regional Weather Roundup
Issued by NWS Bismarck, ND

Home | Current Version | Previous Version | Text Only | Print | Product List | Glossary On
Versions: 1 2 3 4 5 6 7 8 9 10 11 12 13 14 15 16 17 18 19 20 21 22 23 24 25 26 27 28 29 30 31 32 33 34 35 36 37 38 39 40 41 42 43 44 45 46 47 48 49 50
000
ASUS43 KBIS 092059
RWRBIS

NWR BROADCAST TEXT
NATIONAL WEATHER SERVICE BISMARCK ND
400 PM CDT WED JUL 09 2014

NOTE: "FAIR" INDICATES FEW OR NO CLOUDS BELOW 12,000 FEET WITH NO
SIGNIFICANT WEATHER AND/OR OBSTRUCTIONS TO VISIBILITY.


CITY           SKY/WX    TMP DP  RH WIND       PRES   REMARKS
WILLISTON      SUNNY     84  52  33 S9G16     29.94F
MINOT          MOSUNNY   77  54  44 SE9       29.98F
MINOT AFB      NOT AVBL
BISMARCK       MOSUNNY   78  57  48 S3        30.00F HAZE
DICKINSON      MOSUNNY   80  54  40 S8        29.98F
GARRISON         N/A     76  57  51 VRB6      29.99F
HETTINGER ARPT MOSUNNY   81  52  36 S8        30.01F
JAMESTOWN      NOT AVBL
MANDAN         FAIR      75  57  53 SW3       30.01F
$$

CITY           SKY/WX    TMP DP  RH WIND       PRES   REMARKS
GRAND FORKS    MOSUNNY   74  51  44 N6        30.01S
GRAND FORKS AF NOT AVBL
DEVILS LAKE    PTSUNNY   72  52  49 S5        30.01F
FARGO          SUNNY     75  50  41 N10       30.01S
GWINNER        PTCLDY    75  54  46 N8        30.03S
$$

CITY           SKY/WX    TMP DP  RH WIND       PRES   REMARKS
ABERDEEN       MOSUNNY   75  54  47 CALM      30.01F
MOBRIDGE       MOSUNNY   79  54  41 SE6       29.98F HAZE
BUFFALO          N/A     82  52  35 SE12G21   29.93F
RAPID CITY     SUNNY     79  57  46 SE10      30.02F
GLASGOW        SUNNY     88  48  25 S10       29.87F
SIDNEY         SUNNY     86  54  32 SE3       29.94F
WOLF POINT     SUNNY     88  50  27 S8        29.89F
GLENDIVE       SUNNY     88  50  27 E5        29.93F
MILES CITY     SUNNY     89  48  24 SE14      29.90F
BAKER          SUNNY     87  47  24 SE15G25   29.97F
$$

CITY           SKY/WX    TMP DP  RH WIND       PRES   REMARKS
BILLINGS       PTSUNNY   88  50  27 CALM      29.90F
GREAT FALLS    MOSUNNY   89  47  23 SE6       29.88F
$$



USA.gov is the U.S. government's official web portal to all federal, state and local government web resources and services.